When you browse on this site, cookies collect data to enhance your experience and personalize the content and advertising you see.
Visit our Privacy Policy to learn more. By continuing to use the site, you agree to this use of cookies and data.
  • In Germany
  • List of Countries
  • For 7 days
  • Water Temperature
  • Weather Map
  • Weather Widgets
  • user-avatar
    Login

    Hourly Weather Klagenfurt

    Today, 2 June, Tuesday

    Time Temperature Precipitation Wind Pressure Humidity
    00:00 +10°C° 0 mm 1 mps 690 mmHg 86%
    01:00 +8°C° 0 mm 0 mps 690 mmHg 87%
    02:00 +9°C° 0 mm 1 mps 690 mmHg 88%
    03:00 +9°C° 0 mm 1 mps 689 mmHg 88%
    04:00 +9°C° 0 mm 1 mps 689 mmHg 88%
    05:00 +11°C° 0 mm 1 mps 689 mmHg 81%
    06:00 +12°C° 0 mm 1 mps 690 mmHg 75%
    07:00 +15°C° 0 mm 1 mps 690 mmHg 67%
    08:00 +18°C° 0 mm 1 mps 690 mmHg 61%
    09:00 +20°C° 0 mm 1 mps 690 mmHg 54%
    10:00 +21°C° 0 mm 1 mps 690 mmHg 48%
    11:00 +21°C° 0.4 mm 1 mps 690 mmHg 49%
    12:00 +21°C° 0.4 mm 1 mps 690 mmHg 51%
    13:00 +21°C° 0 mm 1 mps 690 mmHg 53%
    14:00 +21°C° 0.7 mm 1 mps 689 mmHg 57%
    15:00 +20°C° 0.7 mm 1 mps 689 mmHg 61%
    16:00 +19°C° 0.7 mm 1 mps 688 mmHg 65%
    17:00 +18°C° 0.4 mm 1 mps 688 mmHg 70%
    18:00 +16°C° 0.4 mm 1 mps 688 mmHg 76%
    19:00 +13°C° 0.4 mm 0 mps 688 mmHg 82%
    20:00 +13°C° 0.3 mm 1 mps 687 mmHg 84%
    21:00 +12°C° 0.3 mm 1 mps 687 mmHg 86%
    22:00 +10°C° 0.3 mm 1 mps 687 mmHg 88%
    23:00 +10°C° 0.1 mm 1 mps 687 mmHg 89%

    Tomorrow, 3 June, Wednesday

    Time Temperature Precipitation Wind Pressure Humidity
    00:00 +9°C° 0.1 mm 1 mps 687 mmHg 90%
    01:00 +9°C° 0.1 mm 1 mps 687 mmHg 90%
    02:00 +9°C° 0 mm 1 mps 686 mmHg 91%
    03:00 +8°C° 0 mm 1 mps 686 mmHg 91%
    04:00 +8°C° 0 mm 1 mps 685 mmHg 92%
    05:00 +10°C° 0 mm 1 mps 685 mmHg 89%
    06:00 +12°C° 0 mm 1 mps 685 mmHg 86%
    07:00 +12°C° 0 mm 0 mps 685 mmHg 83%
    08:00 +16°C° 0 mm 1 mps 686 mmHg 72%
    09:00 +19°C° 0 mm 1 mps 686 mmHg 61%
    10:00 +21°C° 0 mm 1 mps 686 mmHg 50%
    11:00 +22°C° 0.2 mm 1 mps 686 mmHg 49%
    12:00 +21°C° 0.2 mm 2 mps 685 mmHg 49%
    13:00 +23°C° 0.2 mm 2 mps 685 mmHg 49%
    14:00 +21°C° 0.4 mm 2 mps 685 mmHg 53%
    15:00 +20°C° 0.4 mm 2 mps 684 mmHg 58%
    16:00 +20°C° 0.4 mm 2 mps 684 mmHg 62%
    17:00 +18°C° 0.1 mm 2 mps 683 mmHg 69%
    18:00 +17°C° 0.1 mm 2 mps 683 mmHg 76%
    19:00 +15°C° 0.1 mm 2 mps 682 mmHg 83%
    20:00 +14°C° 0 mm 2 mps 682 mmHg 87%
    21:00 +13°C° 0 mm 1 mps 682 mmHg 91%
    22:00 +11°C° 0 mm 1 mps 682 mmHg 95%
    23:00 +11°C° 0 mm 1 mps 682 mmHg 95%

    Day after tomorrow, 4 June, Thursday

    Time Temperature Precipitation Wind Pressure Humidity
    00:00 +11°C° 0 mm 1 mps 681 mmHg 96%
    01:00 +11°C° 0 mm 1 mps 681 mmHg 96%
    02:00 +11°C° 0 mm 1 mps 681 mmHg 96%
    03:00 +11°C° 0 mm 1 mps 680 mmHg 97%
    04:00 +11°C° 0 mm 1 mps 680 mmHg 97%
    05:00 +12°C° 0 mm 1 mps 680 mmHg 95%
    06:00 +13°C° 0 mm 1 mps 680 mmHg 92%
    07:00 +14°C° 0 mm 1 mps 680 mmHg 90%
    08:00 +15°C° 0.2 mm 2 mps 680 mmHg 84%
    09:00 +16°C° 0.2 mm 2 mps 681 mmHg 79%
    10:00 +17°C° 0.2 mm 3 mps 681 mmHg 74%
    11:00 +17°C° 0.3 mm 3 mps 680 mmHg 76%
    12:00 +17°C° 0.3 mm 3 mps 680 mmHg 77%
    13:00 +15°C° 0.3 mm 4 mps 680 mmHg 79%
    14:00 +14°C° 1.1 mm 3 mps 679 mmHg 83%
    15:00 +14°C° 1.1 mm 3 mps 679 mmHg 88%
    16:00 +14°C° 1.1 mm 2 mps 678 mmHg 92%
    17:00 +13°C° 1.3 mm 2 mps 678 mmHg 94%
    18:00 +13°C° 1.3 mm 2 mps 678 mmHg 95%
    19:00 +13°C° 1.3 mm 2 mps 677 mmHg 97%
    20:00 +13°C° 1.4 mm 2 mps 677 mmHg 97%
    21:00 +13°C° 1.4 mm 1 mps 677 mmHg 98%
    22:00 +12°C° 1.4 mm 1 mps 677 mmHg 98%
    23:00 +13°C° 1 mm 1 mps 677 mmHg 98%

    5 June, Friday

    Time Temperature Precipitation Wind Pressure Humidity
    00:00 +13°C° 1 mm 2 mps 677 mmHg 98%
    01:00 +13°C° 1 mm 2 mps 676 mmHg 99%
    02:00 +13°C° 3.4 mm 2 mps 676 mmHg 99%
    03:00 +13°C° 3.4 mm 2 mps 676 mmHg 99%
    04:00 +13°C° 3.4 mm 2 mps 676 mmHg 98%
    05:00 +13°C° 5.4 mm 2 mps 676 mmHg 98%
    06:00 +12°C° 5.4 mm 2 mps 676 mmHg 98%
    07:00 +12°C° 5.4 mm 2 mps 676 mmHg 98%
    08:00 +11°C° 2.5 mm 1 mps 677 mmHg 98%
    09:00 +11°C° 2.5 mm 1 mps 677 mmHg 97%
    10:00 +11°C° 2.5 mm 1 mps 677 mmHg 97%
    11:00 +11°C° 0.5 mm 1 mps 678 mmHg 93%
    12:00 +12°C° 0.5 mm 1 mps 679 mmHg 90%
    13:00 +13°C° 0.5 mm 1 mps 679 mmHg 86%
    14:00 +13°C° 0.2 mm 1 mps 679 mmHg 85%
    15:00 +13°C° 0.2 mm 1 mps 680 mmHg 85%
    16:00 +13°C° 0.2 mm 1 mps 680 mmHg 84%
    17:00 +12°C° 0.1 mm 0 mps 680 mmHg 85%
    18:00 +12°C° 0.1 mm 0 mps 681 mmHg 86%
    19:00 +12°C° 0.1 mm 0 mps 681 mmHg 86%
    20:00 +11°C° 0 mm 0 mps 682 mmHg 86%
    21:00 +11°C° 0 mm 0 mps 682 mmHg 86%
    22:00 +10°C° 0 mm 0 mps 683 mmHg 87%
    23:00 +10°C° 0 mm 0 mps 683 mmHg 88%

    6 June, Saturday

    Time Temperature Precipitation Wind Pressure Humidity
    00:00 +10°C° 0 mm 0 mps 683 mmHg 89%
    01:00 +10°C° 0 mm 0 mps 683 mmHg 90%
    02:00 +10°C° 0 mm 0 mps 684 mmHg 91%
    03:00 +10°C° 0 mm 0 mps 684 mmHg 92%
    04:00 +10°C° 0 mm 0 mps 684 mmHg 94%
    05:00 +10°C° 0.1 mm 0 mps 684 mmHg 93%
    06:00 +11°C° 0.1 mm 0 mps 685 mmHg 93%
    07:00 +11°C° 0.1 mm 0 mps 685 mmHg 92%
    08:00 +12°C° 0.3 mm 0 mps 685 mmHg 92%
    09:00 +14°C° 0.3 mm 1 mps 686 mmHg 91%
    10:00 +15°C° 0.3 mm 1 mps 686 mmHg 91%
    11:00 +15°C° 0.4 mm 1 mps 686 mmHg 91%
    12:00 +15°C° 0.4 mm 1 mps 685 mmHg 90%
    13:00 +15°C° 0.4 mm 1 mps 685 mmHg 90%
    14:00 +16°C° 0.5 mm 1 mps 685 mmHg 86%
    15:00 +17°C° 0.5 mm 2 mps 685 mmHg 83%
    16:00 +17°C° 0.5 mm 2 mps 685 mmHg 79%
    17:00 +16°C° 0.1 mm 2 mps 685 mmHg 82%
    18:00 +15°C° 0.1 mm 1 mps 684 mmHg 86%
    19:00 +15°C° 0.1 mm 1 mps 684 mmHg 89%
    20:00 +14°C° 0.1 mm 1 mps 684 mmHg 91%
    21:00 +12°C° 0.1 mm 1 mps 684 mmHg 94%
    22:00 +11°C° 0.1 mm 1 mps 685 mmHg 96%
    23:00 +12°C° 0.2 mm 1 mps 684 mmHg 96%

    7 June, Sunday

    Time Temperature Precipitation Wind Pressure Humidity
    00:00 +12°C° 0.2 mm 1 mps 684 mmHg 96%
    01:00 +12°C° 0.2 mm 1 mps 684 mmHg 96%
    02:00 +12°C° 0.2 mm 1 mps 684 mmHg 97%
    03:00 +12°C° 0.2 mm 1 mps 684 mmHg 97%
    04:00 +12°C° 0.2 mm 1 mps 684 mmHg 98%
    05:00 +12°C° 0.2 mm 1 mps 684 mmHg 97%
    06:00 +13°C° 0.2 mm 1 mps 684 mmHg 97%
    07:00 +13°C° 0.2 mm 1 mps 685 mmHg 96%
    08:00 +14°C° 0.4 mm 1 mps 685 mmHg 94%
    09:00 +15°C° 0.4 mm 1 mps 685 mmHg 92%
    10:00 +15°C° 0.4 mm 2 mps 686 mmHg 90%
    11:00 +16°C° 0.6 mm 2 mps 685 mmHg 88%
    12:00 +17°C° 0.6 mm 2 mps 685 mmHg 85%
    13:00 +18°C° 0.6 mm 3 mps 685 mmHg 83%
    14:00 +17°C° 0.6 mm 2 mps 684 mmHg 83%
    15:00 +17°C° 0.6 mm 2 mps 684 mmHg 84%
    16:00 +17°C° 0.6 mm 2 mps 684 mmHg 84%
    17:00 +16°C° 0.5 mm 2 mps 684 mmHg 88%
    18:00 +15°C° 0.5 mm 1 mps 684 mmHg 91%
    19:00 +14°C° 0.5 mm 1 mps 684 mmHg 95%
    20:00 +14°C° 0.6 mm 1 mps 684 mmHg 96%
    21:00 +14°C° 0.6 mm 1 mps 685 mmHg 97%
    22:00 +13°C° 0.6 mm 1 mps 685 mmHg 97%
    23:00 +13°C° 0.3 mm 1 mps 685 mmHg 97%
    Show more